User: anonymous   Login
Location: Oshawa
(43.9000°N, 78.8670°W)
Time: 10:10:01
(UTC-05:00)
Language:

Envisat - Orbit

View from above orbital plane
View from above orbital plane
View from above satellite
View from above satellite

Ground track
Ground track

The orbit data is extracted from the following two-line orbital elements,

1 27386U 02009A   16041.15148072  .00000022  00000-0  21372-4 0  9990
2 27386  98.3022  99.0430 0001048  77.0519 283.0795 14.37854212730224
Epoch (UTC): 10 February 2016 03:38:07
Eccentricity: 0.0001048
inclination: 98.3022°
perigee height: 765 km
apogee height: 766 km
right ascension of ascending node: 99.0430°
argument of perigee: 77.0519°
revolutions per day: 14.37854212
mean anomaly at epoch: 283.0795°
orbit number at epoch: 73022

The dashed part of the orbit path shows where the satellite is in the earth's shadow,  

DLR